| time (UTC) | temp F | wind direction | speed MPH | gust MPH | rain 1hr in | rain 24hr in | rain mn in | humidity % | barometer mb |
| 20260505123017 | 0 | 0.0 | 0.0 | 0.00 | 0.00 | 0.00 | 1006.8 | ||
| 20260505121513 | 0 | 0.0 | 0.0 | 0.00 | 0.00 | 0.00 | 1006.6 | ||
| 20260505120009 | 0 | 0.0 | 0.0 | 0.00 | 0.00 | 0.00 | 1006.7 | ||
| 20260505114503 | 0 | 0.0 | 0.0 | 0.00 | 0.00 | 0.00 | 1006.5 | ||
| 20260505113002 | 70 | 205 | 1.0 | 10.0 | 0.00 | 0.00 | 0.00 | 14 | 1006.4 |
| 20260505111601 | 70 | 223 | 0.0 | 5.0 | 0.00 | 0.00 | 0.00 | 14 | 1006.5 |
| 20260505110109 | 70 | 210 | 1.0 | 8.0 | 0.00 | 0.00 | 0.00 | 15 | 1006.6 |
| 20260505101556 | 70 | 182 | 1.0 | 11.0 | 0.00 | 0.00 | 0.00 | 19 | 1006.6 |
| 20260505100055 | 70 | 217 | 3.0 | 10.0 | 0.00 | 0.00 | 0.00 | 21 | 1006.8 |
| 20260505094554 | 70 | 179 | 3.0 | 12.0 | 0.00 | 0.00 | 0.00 | 23 | 1006.5 |
| 20260505093052 | 70 | 238 | 1.0 | 7.0 | 0.00 | 0.00 | 0.00 | 24 | 1006.7 |
| 20260505091605 | 70 | 200 | 2.0 | 10.0 | 0.00 | 0.00 | 0.00 | 25 | 1006.6 |
| 20260505090051 | 70 | 228 | 3.0 | 8.0 | 0.00 | 0.00 | 0.00 | 26 | 1006.8 |
| 20260505084551 | 70 | 225 | 2.0 | 10.0 | 0.00 | 0.00 | 0.00 | 27 | 1006.9 |
| 20260505083047 | 70 | 189 | 1.0 | 8.0 | 0.00 | 0.00 | 0.00 | 26 | 1007.0 |
| 20260505081547 | 70 | 205 | 1.0 | 9.0 | 0.00 | 0.00 | 0.00 | 25 | 1007.3 |
| 20260505080051 | 70 | 212 | 2.0 | 11.0 | 0.00 | 0.00 | 0.00 | 27 | 1007.5 |
| 20260505074542 | 71 | 188 | 3.0 | 7.0 | 0.00 | 0.00 | 0.00 | 29 | 1007.5 |
| 20260505073044 | 71 | 205 | 2.0 | 8.0 | 0.00 | 0.00 | 0.00 | 32 | 1007.6 |
| 20260505071538 | 71 | 206 | 2.0 | 10.0 | 0.00 | 0.00 | 0.00 | 34 | 1007.9 |
| 20260505070043 | 71 | 203 | 4.0 | 11.0 | 0.00 | 0.00 | 0.00 | 34 | 1008.0 |
| 20260505064534 | 71 | 189 | 2.0 | 10.0 | 0.00 | 0.00 | 0.00 | 34 | 1008.1 |
| 20260505063032 | 71 | 225 | 3.0 | 10.0 | 0.00 | 0.00 | 0.00 | 34 | 1008.3 |
| 20260505061538 | 71 | 229 | 3.0 | 10.0 | 0.00 | 0.00 | 0.00 | 35 | 1008.5 |
| 20260505060029 | 71 | 215 | 4.0 | 11.0 | 0.00 | 0.00 | 0.00 | 37 | 1008.5 |
| 20260505054534 | 71 | 201 | 1.0 | 11.0 | 0.00 | 0.00 | 0.00 | 38 | 1008.6 |
| 20260505053028 | 71 | 209 | 2.0 | 15.0 | 0.00 | 0.00 | 0.00 | 40 | 1008.5 |
| 20260505051524 | 71 | 178 | 4.0 | 11.0 | 0.00 | 0.00 | 0.00 | 41 | 1008.4 |
| 20260505041530 | 72 | 209 | 0.0 | 9.0 | 0.00 | 0.00 | 0.00 | 50 | 1008.2 |
| 20260505040029 | 73 | 205 | 1.0 | 7.0 | 0.00 | 0.00 | 0.00 | 52 | 1008.3 |
| 20260505034522 | 73 | 205 | 1.0 | 6.0 | 0.00 | 0.00 | 0.00 | 54 | 1008.3 |
| 20260505033019 | 74 | 217 | 0.0 | 7.0 | 0.00 | 0.00 | 0.00 | 57 | 1008.3 |
| 20260505031532 | 74 | 211 | 0.0 | 8.0 | 0.00 | 0.00 | 0.00 | 59 | 1008.1 |
| 20260505030016 | 74 | 206 | 0.0 | 4.0 | 0.00 | 0.00 | 0.00 | 61 | 1008.3 |
| 20260505024516 | 75 | 188 | 0.0 | 5.0 | 0.00 | 0.00 | 0.00 | 63 | 1008.2 |
| 20260505023015 | 75 | 197 | 0.0 | 7.0 | 0.00 | 0.00 | 0.00 | 64 | 1008.1 |
| 20260505021515 | 75 | 181 | 0.0 | 6.0 | 0.00 | 0.00 | 0.00 | 65 | 1008.1 |
| 20260505020014 | 76 | 173 | 0.0 | 8.0 | 0.00 | 0.00 | 0.00 | 66 | 1008.0 |
| 20260505014513 | 76 | 194 | 0.0 | 6.0 | 0.00 | 0.00 | 0.00 | 67 | 1007.8 |
| 20260505013012 | 76 | 219 | 0.0 | 5.0 | 0.00 | 0.00 | 0.00 | 67 | 1007.9 |
| 20260505011512 | 77 | 184 | 0.0 | 3.0 | 0.00 | 0.00 | 0.00 | 67 | 1007.8 |
| 20260505010012 | 77 | 216 | 0.0 | 6.0 | 0.00 | 0.00 | 0.00 | 66 | 1007.6 |
| 20260505004511 | 78 | 173 | 0.0 | 13.0 | 0.00 | 0.00 | 0.00 | 65 | 1007.7 |
| 20260505003010 | 79 | 199 | 1.0 | 9.0 | 0.00 | 0.00 | 0.00 | 64 | 1007.5 |
| 20260505001510 | 79 | 208 | 0.0 | 10.0 | 0.00 | 0.00 | 0.00 | 63 | 1007.4 |
| 20260505000010 | 79 | 180 | 0.0 | 9.0 | 0.00 | 0.00 | 0.00 | 62 | 1007.7 |
| 20260504234508 | 80 | 188 | 2.0 | 14.0 | 0.00 | 0.00 | 0.00 | 61 | 1007.7 |
| 20260504233004 | 80 | 205 | 1.0 | 10.0 | 0.00 | 0.00 | 0.00 | 60 | 1008.1 |
| 20260504231504 | 80 | 212 | 2.0 | 17.0 | 0.00 | 0.00 | 0.00 | 60 | 1008.1 |
| 20260504230002 | 80 | 209 | 0.0 | 6.0 | 0.00 | 0.00 | 0.00 | 60 | 1008.4 |
| 20260504224612 | 81 | 215 | 3.0 | 11.0 | 0.00 | 0.00 | 0.00 | 59 | 1008.5 |
| 20260504223134 | 80 | 186 | 2.0 | 8.0 | 0.00 | 0.00 | 0.00 | 60 | 1008.6 |
| 20260504221558 | 80 | 196 | 1.0 | 9.0 | 0.00 | 0.00 | 0.00 | 60 | 1008.7 |
| 20260504220058 | 81 | 215 | 1.0 | 12.0 | 0.00 | 0.00 | 0.00 | 59 | 1008.8 |
| 20260504214556 | 81 | 196 | 0.0 | 10.0 | 0.00 | 0.00 | 0.00 | 60 | 1009.0 |
| 20260504213104 | 81 | 207 | 3.0 | 10.0 | 0.00 | 0.00 | 0.00 | 60 | 1008.9 |
| 20260504211553 | 81 | 182 | 2.0 | 13.0 | 0.00 | 0.00 | 0.00 | 59 | 1009.2 |
| 20260504210057 | 81 | 232 | 2.0 | 8.0 | 0.00 | 0.00 | 0.00 | 59 | 1009.6 |
| 20260504204550 | 81 | 224 | 1.0 | 12.0 | 0.00 | 0.00 | 0.00 | 58 | 1009.8 |
| 20260504203104 | 81 | 219 | 1.0 | 12.0 | 0.00 | 0.00 | 0.00 | 59 | 1010.0 |
| 20260504201549 | 81 | 173 | 1.0 | 12.0 | 0.00 | 0.00 | 0.00 | 59 | 1010.4 |
| 20260504200044 | 81 | 200 | 1.0 | 15.0 | 0.00 | 0.00 | 0.00 | 61 | 1010.6 |
| 20260504194540 | 81 | 224 | 1.0 | 12.0 | 0.00 | 0.00 | 0.00 | 61 | 1010.9 |
| 20260504193037 | 79 | 222 | 1.0 | 12.0 | 0.00 | 0.00 | 0.00 | 62 | 1011.2 |
| 20260504191535 | 79 | 223 | 3.0 | 16.0 | 0.00 | 0.00 | 0.00 | 62 | 1011.5 |
| 20260504190036 | 79 | 207 | 4.0 | 10.0 | 0.00 | 0.00 | 0.00 | 61 | 1011.6 |
| 20260504184531 | 79 | 208 | 2.0 | 17.0 | 0.00 | 0.00 | 0.00 | 61 | 1011.7 |
| 20260504183027 | 79 | 182 | 3.0 | 10.0 | 0.00 | 0.00 | 0.00 | 61 | 1012.1 |
| 20260504181526 | 79 | 136 | 3.0 | 10.0 | 0.00 | 0.00 | 0.00 | 63 | 1012.3 |
| 20260504180024 | 78 | 243 | 4.0 | 10.0 | 0.00 | 0.00 | 0.00 | 63 | 1012.4 |
| 20260504174519 | 77 | 228 | 4.0 | 15.0 | 0.00 | 0.00 | 0.00 | 64 | 1012.6 |
| 20260504173016 | 76 | 215 | 1.0 | 10.0 | 0.00 | 0.00 | 0.00 | 66 | 1013.2 |
| 20260504171513 | 73 | 227 | 2.0 | 7.0 | 0.00 | 0.00 | 0.00 | 67 | 1013.5 |
| 20260504150106 | 69 | 216 | 5.0 | 13.0 | 0.00 | 0.00 | 0.00 | 67 | 1014.6 |